| time (UTC) | temp F | wind direction | speed knots | gust knots | rain 1hr in | rain 24hr in | rain mn in | humidity % | barometer mb |
| 20260905223213 | 54 | 5 | 0.9 | 5.2 | 0.00 | 0.10 | 0.00 | 91 | 1014.1 |
| 20260905221713 | 55 | 270 | 1.7 | 5.2 | 0.00 | 0.10 | 0.00 | 91 | 1014.1 |
| 20260905220213 | 55 | 216 | 0.9 | 4.3 | 0.00 | 0.10 | 0.00 | 91 | 1014.0 |
| 20260905214713 | 54 | 216 | 0.9 | 4.3 | 0.00 | 0.10 | 0.00 | 92 | 1013.9 |
| 20260905213213 | 54 | 195 | 0.0 | 2.6 | 0.00 | 0.10 | 0.00 | 93 | 1013.8 |
| 20260905211713 | 54 | 306 | 0.9 | 3.5 | 0.00 | 0.10 | 0.00 | 92 | 1013.6 |
| 20260905210213 | 54 | 252 | 0.0 | 5.2 | 0.00 | 0.10 | 0.00 | 92 | 1013.4 |
| 20260905204713 | 55 | 78 | 0.9 | 2.6 | 0.00 | 0.10 | 0.00 | 92 | 1013.4 |
| 20260905203213 | 55 | 204 | 0.9 | 3.5 | 0.00 | 0.10 | 0.00 | 92 | 1013.5 |
| 20260905201713 | 55 | 40 | 0.9 | 4.3 | 0.00 | 0.10 | 0.00 | 92 | 1013.3 |
| 20260905200212 | 55 | 246 | 0.9 | 5.2 | 0.00 | 0.10 | 0.00 | 91 | 1013.1 |
| 20260905194712 | 55 | 91 | 0.9 | 3.5 | 0.00 | 0.10 | 0.00 | 91 | 1012.8 |
| 20260905193212 | 55 | 276 | 0.9 | 4.3 | 0.00 | 0.10 | 0.00 | 92 | 1012.7 |
| 20260905191712 | 55 | 258 | 0.9 | 3.5 | 0.00 | 0.11 | 0.00 | 92 | 1012.6 |
| 20260905190212 | 55 | 111 | 0.9 | 4.3 | 0.00 | 0.11 | 0.00 | 93 | 1012.5 |
| 20260905184711 | 55 | 186 | 0.9 | 3.5 | 0.00 | 0.13 | 0.00 | 93 | 1012.5 |
| 20260905183211 | 56 | 0 | 0.9 | 6.1 | 0.00 | 0.13 | 0.00 | 92 | 1012.4 |
| 20260905181711 | 56 | 228 | 1.7 | 5.2 | 0.00 | 0.13 | 0.00 | 92 | 1012.3 |
| 20260905180211 | 56 | 246 | 0.9 | 3.5 | 0.00 | 0.13 | 0.00 | 92 | 1012.0 |
| 20260905174710 | 56 | 318 | 0.9 | 3.5 | 0.00 | 0.13 | 0.00 | 90 | 1011.8 |
| 20260905173210 | 56 | 234 | 1.7 | 5.2 | 0.00 | 0.13 | 0.00 | 90 | 1011.8 |
| 20260905171710 | 57 | 190 | 1.7 | 5.2 | 0.00 | 0.13 | 0.00 | 90 | 1011.4 |
| 20260905170209 | 57 | 185 | 2.6 | 5.2 | 0.00 | 0.14 | 0.00 | 89 | 1011.4 |
| 20260905164709 | 58 | 191 | 2.6 | 6.1 | 0.00 | 0.15 | 0.00 | 89 | 1011.3 |
| 20260905163209 | 58 | 157 | 2.6 | 5.2 | 0.01 | 0.15 | 0.00 | 87 | 1011.1 |
| 20260905161709 | 59 | 114 | 2.6 | 8.7 | 0.01 | 0.23 | 0.00 | 86 | 1010.9 |
| 20260905160208 | 59 | 185 | 1.7 | 6.1 | 0.01 | 0.28 | 0.00 | 85 | 1010.7 |
| 20260905154708 | 60 | 202 | 3.5 | 8.7 | 0.01 | 0.43 | 0.00 | 85 | 1010.7 |
| 20260905153208 | 61 | 216 | 1.7 | 5.2 | 0.00 | 0.42 | 0.00 | 81 | 1010.6 |
| 20260905151708 | 61 | 246 | 1.7 | 5.2 | 0.00 | 0.42 | 0.00 | 81 | 1010.4 |
| 20260905150208 | 61 | 222 | 2.6 | 6.1 | 0.00 | 0.42 | 0.00 | 80 | 1010.3 |
| 20260905144708 | 61 | 245 | 2.6 | 7.0 | 0.00 | 0.42 | 0.00 | 78 | 1010.3 |
| 20260905143208 | 61 | 217 | 2.6 | 8.7 | 0.00 | 0.42 | 0.00 | 83 | 1010.4 |
| 20260905141708 | 61 | 221 | 2.6 | 6.1 | 0.02 | 0.42 | 0.00 | 83 | 1010.5 |
| 20260905140208 | 61 | 254 | 1.7 | 5.2 | 0.02 | 0.42 | 0.00 | 86 | 1010.5 |
| 20260905134708 | 59 | 32 | 1.7 | 4.3 | 0.02 | 0.42 | 0.00 | 90 | 1010.5 |
| 20260905133207 | 58 | 292 | 3.5 | 9.6 | 0.05 | 0.42 | 0.00 | 88 | 1010.6 |
| 20260905131707 | 59 | 280 | 0.9 | 3.5 | 0.06 | 0.40 | 0.00 | 87 | 1010.5 |
| 20260905130207 | 60 | 222 | 0.9 | 3.5 | 0.06 | 0.40 | 0.00 | 90 | 1010.3 |
| 20260905124707 | 57 | 180 | 2.6 | 11.3 | 0.06 | 0.40 | 0.00 | 89 | 1010.2 |
| 20260905123207 | 58 | 276 | 4.3 | 11.3 | 0.05 | 0.39 | 0.00 | 90 | 1010.7 |
| 20260905121707 | 63 | 258 | 2.6 | 9.6 | 0.00 | 0.34 | 0.00 | 78 | 1010.1 |
| 20260905120207 | 65 | 264 | 3.5 | 8.7 | 0.00 | 0.34 | 0.00 | 75 | 1010.0 |
| 20260905114707 | 66 | 280 | 3.5 | 7.8 | 0.00 | 0.34 | 0.00 | 76 | 1009.9 |
| 20260905113207 | 65 | 194 | 3.5 | 9.6 | 0.01 | 0.34 | 0.00 | 78 | 1010.1 |
| 20260905111707 | 63 | 192 | 2.6 | 8.7 | 0.01 | 0.34 | 0.00 | 81 | 1010.3 |
| 20260905110203 | 61 | 174 | 2.6 | 9.6 | 0.01 | 0.34 | 0.00 | 85 | 1010.4 |
| 20260905104703 | 60 | 255 | 2.6 | 10.4 | 0.01 | 0.34 | 0.00 | 85 | 1010.5 |
| 20260905103203 | 61 | 285 | 3.5 | 9.6 | 0.00 | 0.33 | 0.00 | 82 | 1010.5 |
| 20260905101703 | 63 | 167 | 3.5 | 9.6 | 0.00 | 0.33 | 0.00 | 74 | 1010.2 |
| 20260905100203 | 65 | 90 | 2.6 | 8.7 | 0.00 | 0.33 | 0.00 | 73 | 1009.8 |
| 20260905094703 | 65 | 324 | 3.5 | 8.7 | 0.00 | 0.33 | 0.00 | 72 | 1009.9 |
| 20260905093203 | 65 | 312 | 2.6 | 8.7 | 0.00 | 0.33 | 0.00 | 69 | 1009.8 |
| 20260905091703 | 64 | 270 | 4.3 | 10.4 | 0.00 | 0.33 | 0.00 | 70 | 1009.7 |
| 20260905090203 | 63 | 253 | 3.5 | 9.6 | 0.00 | 0.33 | 0.00 | 73 | 1009.7 |
| 20260905084703 | 64 | 293 | 3.5 | 9.6 | 0.00 | 0.33 | 0.00 | 72 | 1009.5 |
| 20260905083203 | 63 | 294 | 3.5 | 8.7 | 0.00 | 0.33 | 0.00 | 73 | 1009.6 |
| 20260905081703 | 63 | 69 | 4.3 | 10.4 | 0.00 | 0.33 | 0.00 | 73 | 1009.4 |
| 20260905080202 | 62 | 301 | 3.5 | 11.3 | 0.00 | 0.33 | 0.00 | 75 | 1009.4 |
| 20260905074702 | 62 | 319 | 2.6 | 8.7 | 0.00 | 0.33 | 0.00 | 77 | 1009.3 |
| 20260905073202 | 61 | 330 | 2.6 | 8.7 | 0.00 | 0.33 | 0.00 | 78 | 1009.1 |
| 20260905071702 | 62 | 342 | 3.5 | 9.6 | 0.00 | 0.33 | 0.00 | 77 | 1009.1 |
| 20260905070202 | 61 | 270 | 3.5 | 10.4 | 0.00 | 0.33 | 0.00 | 80 | 1008.8 |
| 20260905064702 | 60 | 276 | 2.6 | 6.1 | 0.00 | 0.33 | 0.00 | 82 | 1008.6 |
| 20260905063202 | 61 | 186 | 2.6 | 6.1 | 0.00 | 0.33 | 0.00 | 79 | 1008.4 |
| 20260905061702 | 61 | 202 | 2.6 | 6.1 | 0.00 | 0.33 | 0.00 | 78 | 1008.3 |
| 20260905060202 | 59 | 310 | 2.6 | 9.6 | 0.00 | 0.33 | 0.00 | 77 | 1008.3 |
| 20260905054701 | 59 | 294 | 2.6 | 8.7 | 0.00 | 0.33 | 0.00 | 78 | 1008.1 |
| 20260905053201 | 59 | 234 | 2.6 | 7.8 | 0.00 | 0.33 | 0.00 | 78 | 1008.0 |
| 20260905051701 | 60 | 271 | 2.6 | 13.0 | 0.00 | 0.33 | 0.00 | 81 | 1007.8 |
| 20260905050201 | 59 | 276 | 1.7 | 5.2 | 0.00 | 0.33 | 0.00 | 85 | 1007.6 |
| 20260905044701 | 59 | 276 | 1.7 | 4.3 | 0.00 | 0.33 | 0.00 | 86 | 1007.3 |
| 20260905043201 | 59 | 246 | 2.6 | 7.8 | 0.00 | 0.33 | 0.00 | 86 | 1007.2 |
| 20260905041701 | 59 | 175 | 1.7 | 7.8 | 0.00 | 0.33 | 0.00 | 86 | 1007.1 |
| 20260905040201 | 59 | 222 | 1.7 | 4.3 | 0.00 | 0.33 | 0.00 | 86 | 1006.9 |
| 20260905034701 | 59 | 196 | 1.7 | 5.2 | 0.00 | 0.33 | 0.00 | 85 | 1006.7 |
| 20260905033201 | 59 | 259 | 1.7 | 5.2 | 0.00 | 0.33 | 0.00 | 86 | 1006.6 |
| 20260905031701 | 59 | 133 | 1.7 | 4.3 | 0.00 | 0.33 | 0.00 | 87 | 1006.6 |
| 20260905030201 | 59 | 126 | 0.9 | 5.2 | 0.00 | 0.33 | 0.00 | 86 | 1006.4 |
| 20260905024701 | 59 | 156 | 1.7 | 7.0 | 0.00 | 0.33 | 0.00 | 87 | 1006.2 |
| 20260905023201 | 59 | 222 | 1.7 | 8.7 | 0.00 | 0.33 | 0.00 | 86 | 1006.3 |
| 20260905021701 | 59 | 228 | 0.9 | 4.3 | 0.00 | 0.33 | 0.00 | 86 | 1006.2 |
| 20260905020201 | 59 | 210 | 0.9 | 5.2 | 0.00 | 0.33 | 0.00 | 85 | 1006.1 |
| 20260905014700 | 59 | 214 | 1.7 | 5.2 | 0.00 | 0.33 | 0.00 | 82 | 1005.9 |
| 20260905013200 | 60 | 306 | 1.7 | 7.8 | 0.00 | 0.33 | 0.00 | 83 | 1005.8 |
| 20260905011700 | 59 | 281 | 0.9 | 6.1 | 0.00 | 0.33 | 0.00 | 86 | 1005.6 |
| 20260905010200 | 60 | 298 | 1.7 | 8.7 | 0.00 | 0.33 | 0.00 | 78 | 1005.4 |
| 20260905004700 | 60 | 298 | 3.5 | 11.3 | 0.00 | 0.33 | 0.00 | 77 | 1005.4 |
| 20260905003200 | 61 | 336 | 3.5 | 9.6 | 0.00 | 0.33 | 0.00 | 82 | 1005.1 |
| 20260905001700 | 61 | 300 | 3.5 | 8.7 | 0.00 | 0.33 | 0.00 | 84 | 1005.0 |
| 20260905000200 | 62 | 300 | 3.5 | 8.7 | 0.00 | 0.33 | 0.00 | 85 | 1004.8 |
| 20260904234700 | 61 | 282 | 3.5 | 13.9 | 0.00 | 0.33 | 0.00 | 86 | 1004.8 |